Regional Weather Roundup
Issued by NWS Little Rock, AR

Home | Current Version | Previous Version | Graphics & Text | Print | Product List | Glossary On
Versions: 1 2 3 4 5 6 7 8 9 10 11 12 13 14 15 16 17 18 19 20 21 22 23 24 25 26 27 28 29 30 31
000
ASUS44 KLZK 200105
RWRLZK

WEATHER ROUNDUP FOR ARKANSAS
NATIONAL WEATHER SERVICE LITTLE ROCK AR
700 PM CST FRI JAN 19 2018

NOTE: "FAIR" INDICATES FEW OR NO CLOUDS BELOW 12,000 FEET WITH NO
SIGNIFICANT WEATHER AND/OR OBSTRUCTIONS TO VISIBILITY.

ARZ001-003-010-029-200200-
NORTHWEST ARKANSAS

CITY           SKY/WX    TMP DP  RH WIND       PRES   REMARKS
FAYETTEVILLE   CLOUDY    46  31  55 S9G22     29.97S
FORT SMITH     CLOUDY    50  35  56 S5        30.02S
HARRISON       CLOUDY    43  30  60 SE10      29.98S
BENTONVILLE    CLOUDY    44  29  55 S7        29.97
ROGERS         CLOUDY    44  29  55 S9        29.96S
SILOAM SPGS    CLOUDY    47  30  51 S13       29.96S
HIGHFILL       CLOUDY    41  28  60 S8        29.95S
SPRINGDALE     CLEAR     45  28  53 S7        29.97F
$$

ARZ004-005-016-200200-
NORTH CENTRAL ARKANSAS

CITY           SKY/WX    TMP DP  RH WIND       PRES   REMARKS
BATESVILLE     FAIR      37  21  52 S9        30.10R
FLIPPIN        CLOUDY    45  31  58 S7        30.02R
MTN HOME       CLOUDY    43  31  62 S6        30.00S
$$

ARZ040-041-200200-
WEST CENTRAL ARKANSAS

CITY           SKY/WX    TMP DP  RH WIND       PRES   REMARKS
MENA           CLOUDY    50  30  46 S6        30.08R
MOUNT IDA      CLOUDY    47  24  40 VRB5      30.08R
$$

ARZ009-017-025-026-028-200200-
NORTHEAST ARKANSAS

CITY           SKY/WX    TMP DP  RH WIND       PRES   REMARKS
JONESBORO      FAIR      35  29  78 S9        30.12S WCI  28
NEWPORT        FAIR      32  27  81 S8        30.12S WCI  25
WALNUT RIDGE   FAIR      34  26  72 S12       30.11R WCI  25
BLYTHEVILLE    CLOUDY    39  25  57 S12       30.14R
$$

ARZ022-023-033-042-044-200200-
CENTRAL ARKANSAS

CITY           SKY/WX    TMP DP  RH WIND       PRES   REMARKS
LITTLE ROCK    CLOUDY    42  22  44 S6        30.15R
N LITTLE ROCK    N/A     42  24  50 S6        30.10R
JACKSONVILLE   CLOUDY    40  27  61 SE5       30.13R
SEARCY         FAIR      34  28  79 S9        30.14S WCI  27
HOT SPRINGS    CLOUDY    44  23  43 SE6       30.13S
RUSSELLVILLE   CLEAR     45  26  47 S8G17     30.07R
CLINTON        FAIR      41  27  56 CALM      30.09R
$$

ARZ036-200200-
EAST ARKANSAS

CITY           SKY/WX    TMP DP  RH WIND       PRES   REMARKS
WEST MEMPHIS   CLOUDY    37  25  61 S15       30.16F
$$

ARZ050-053-066-070-073-200200-
SOUTHWEST ARKANSAS

CITY           SKY/WX    TMP DP  RH WIND       PRES   REMARKS
ARKADELPHIA    CLOUDY    40  31  70 CALM      30.16R
CAMDEN         CLOUDY    48  19  32 S3        30.16R
TEXARKANA      CLOUDY    47  27  45 SE5       30.12S
EL DORADO      CLOUDY    49  19  30 SE9       30.16S
DE QUEEN       CLOUDY    50  28  42 SE3       30.09S
$$

ARZ056-057-069-200200-
SOUTHEAST ARKANSAS

CITY           SKY/WX    TMP DP  RH WIND       PRES   REMARKS
PINE BLUFF     CLOUDY    37  32  82 SE8       30.16S
STUTTGART      CLOUDY    39  28  64 S9        30.16S
MONTICELLO     CLOUDY    45  24  43 S8        30.18S

$$






USA.gov is the U.S. government's official web portal to all federal, state and local government web resources and services.